Location: Chantarel
(45.1638°N, 1.7873°E)
Time: 14:40:52
(UTC+00:00)

Cosmos 1844 - Pass Details

Date: 03 March 2021
Orbit: 822 x 868 km, 70.9° (Epoch: 15 April)

Event Time Altitude Azimuth Distance (km) Brightness Sun altitude
Rises 18:33:39 0° 338° (NNW) 3,460 7.2 -9.7°
Reaches altitude 10° 18:36:17 10° 345° (NNW) 2,515 6.4 -10.2°
Maximum altitude 18:41:45 41° 56° (NE) 1,224 4.2 -11.1°
Enters shadow 18:47:00 11° 125° (SE) 2,438 5.6 -12.1°
